VXP9971 KHVN-KJQF

Flight info

Callsign VXP9971
Flight time 1h 39m
Altitude 34000
Route JUDDS RONGE PWL BIZEX Q75 GVE AIROW NASCR1
Aircraft B738/M-SDE2E3FGHIRWXY/LB1

Departure

Time 2026-05-04 17:07
Airport Tweed New Haven Airport (KHVN)

Arrival

Time 2026-05-04 18:46
Airport Concord-Padgett Regional Airport (KJQF)
Time Latitude Longitude Altitude Speed Heading
2026-05-04 16:55 41.26920 -72.89012 17 ft 0 kts 311°
2026-05-04 16:58 41.26917 -72.89007 16 ft 4 kts 311°
2026-05-04 16:59 41.26881 -72.88954 15 ft 4 kts 316°
2026-05-04 17:00 41.26858 -72.88926 15 ft 0 kts 320°
2026-05-04 17:02 41.26860 -72.88928 15 ft 2 kts 320°
2026-05-04 17:03 41.26869 -72.88939 15 ft 0 kts 321°
2026-05-04 17:03 41.26913 -72.88924 16 ft 9 kts 20°
2026-05-04 17:04 41.27056 -72.88846 16 ft 0 kts 42°
2026-05-04 17:05 41.27060 -72.88726 17 ft 11 kts 185°
2026-05-04 17:05 41.26917 -72.88735 16 ft 57 kts 182°
2026-05-04 17:06 41.25219 -72.88900 397 ft 159 kts 187°
2026-05-04 17:06 41.25035 -72.88921 460 ft 165 kts 187°
2026-05-04 17:07 41.22394 -72.89324 1742 ft 188 kts 207°
2026-05-04 17:07 41.21743 -72.90022 2399 ft 183 kts 232°
2026-05-04 17:07 41.21167 -72.92277 2862 ft 210 kts 268°
2026-05-04 17:07 41.21582 -72.94163 3374 ft 223 kts 296°
2026-05-04 17:08 41.22763 -72.95609 3867 ft 245 kts 323°
2026-05-04 17:08 41.26257 -72.97133 4952 ft 274 kts 339°
2026-05-04 17:08 41.28107 -72.97751 5825 ft 274 kts 339°
2026-05-04 17:09 41.29940 -72.98373 6631 ft 276 kts 339°
2026-05-04 17:09 41.31810 -72.99024 7377 ft 280 kts 339°
2026-05-04 17:09 41.33701 -72.99698 8099 ft 283 kts 339°
2026-05-04 17:10 41.37548 -73.01097 9584 ft 289 kts 338°
2026-05-04 17:10 41.43691 -73.03387 10753 ft 335 kts 339°
2026-05-04 17:11 41.46008 -73.04257 10908 ft 356 kts 339°
2026-05-04 17:11 41.48446 -73.05169 11230 ft 370 kts 339°
2026-05-04 17:11 41.53464 -73.07033 12552 ft 376 kts 339°
2026-05-04 17:12 41.55986 -73.07974 13281 ft 377 kts 339°
2026-05-04 17:12 41.61061 -73.09882 14665 ft 382 kts 340°
2026-05-04 17:13 41.68835 -73.12684 16678 ft 389 kts 341°
2026-05-04 17:14 41.76778 -73.15435 18475 ft 397 kts 341°
2026-05-04 17:14 41.79459 -73.16374 19012 ft 400 kts 341°
2026-05-04 17:14 41.83379 -73.18319 19592 ft 378 kts 322°
2026-05-04 17:15 41.85212 -73.20649 19750 ft 348 kts 304°
2026-05-04 17:15 41.86985 -73.26115 20019 ft 304 kts 280°
2026-05-04 17:16 41.87560 -73.31780 18754 ft 329 kts 267°
2026-05-04 17:16 41.85036 -73.39909 20981 ft 311 kts 240°
2026-05-04 17:17 41.83841 -73.42356 21554 ft 319 kts 242°
2026-05-04 17:17 41.80416 -73.50813 21899 ft 368 kts 247°
2026-05-04 17:18 41.79255 -73.53949 22000 ft 383 kts 245°
2026-05-04 17:18 41.75174 -73.58960 22191 ft 428 kts 208°
2026-05-04 17:19 41.69120 -73.59982 22940 ft 451 kts 182°
2026-05-04 17:19 41.62828 -73.59605 23777 ft 456 kts 182°
2026-05-04 17:20 41.56454 -73.59256 24516 ft 461 kts 182°
2026-05-04 17:20 41.50029 -73.58978 25264 ft 464 kts 182°
2026-05-04 17:20 41.46786 -73.58849 25591 ft 467 kts 182°
2026-05-04 17:21 41.40326 -73.58589 26254 ft 471 kts 182°
2026-05-04 17:21 41.33745 -73.58328 26874 ft 475 kts 184°
2026-05-04 17:22 41.30508 -73.58863 27134 ft 465 kts 202°
2026-05-04 17:22 41.27610 -73.60660 27461 ft 456 kts 217°
2026-05-04 17:23 41.21316 -73.69641 28705 ft 441 kts 236°
2026-05-04 17:23 41.19435 -73.72861 29033 ft 442 kts 236°
2026-05-04 17:23 41.15606 -73.79210 29824 ft 439 kts 235°
2026-05-04 17:24 41.13709 -73.82337 30227 ft 437 kts 235°
2026-05-04 17:24 41.08053 -73.91813 31292 ft 434 kts 235°
2026-05-04 17:25 41.06185 -73.94946 31709 ft 432 kts 235°
2026-05-04 17:25 41.02511 -74.01086 32422 ft 429 kts 235°
2026-05-04 17:26 40.98791 -74.07289 32845 ft 433 kts 235°
2026-05-04 17:26 40.93177 -74.16619 33784 ft 429 kts 235°
2026-05-04 17:27 40.89459 -74.22783 33957 ft 431 kts 235°
2026-05-04 17:28 40.82028 -74.35069 33950 ft 424 kts 235°
2026-05-04 17:29 40.71028 -74.53244 33962 ft 422 kts 235°
2026-05-04 17:31 40.61838 -74.68390 33943 ft 425 kts 235°
2026-05-04 17:32 40.52056 -74.83130 33961 ft 430 kts 230°
2026-05-04 17:33 40.44587 -74.93639 33965 ft 431 kts 231°
2026-05-04 17:34 40.36430 -75.05127 33967 ft 432 kts 231°
2026-05-04 17:35 40.26155 -75.19508 33963 ft 433 kts 231°
2026-05-04 17:36 40.22039 -75.25254 33972 ft 432 kts 231°
2026-05-04 17:36 40.17926 -75.30985 33970 ft 432 kts 231°
2026-05-04 17:37 40.15196 -75.34785 33976 ft 432 kts 231°
2026-05-04 17:37 40.11233 -75.40286 33974 ft 433 kts 231°
2026-05-04 17:38 40.07156 -75.45927 33982 ft 433 kts 231°
2026-05-04 17:38 40.03018 -75.51644 33986 ft 433 kts 231°
2026-05-04 17:39 39.96811 -75.60204 33993 ft 433 kts 231°
2026-05-04 17:39 39.92665 -75.65909 33989 ft 433 kts 231°
2026-05-04 17:40 39.88764 -75.71840 33998 ft 430 kts 235°
2026-05-04 17:41 39.80909 -75.84520 33992 ft 431 kts 234°
2026-05-04 17:41 39.77122 -75.90549 33990 ft 431 kts 234°
2026-05-04 17:42 39.73343 -75.96561 33981 ft 431 kts 234°
2026-05-04 17:42 39.69549 -76.02589 33980 ft 431 kts 234°
2026-05-04 17:43 39.65749 -76.08617 33982 ft 432 kts 234°
2026-05-04 17:43 39.61946 -76.14638 33980 ft 432 kts 234°
2026-05-04 17:44 39.58121 -76.20626 33982 ft 432 kts 234°
2026-05-04 17:44 39.54224 -76.26561 33977 ft 432 kts 234°
2026-05-04 17:45 39.50332 -76.32497 33988 ft 432 kts 234°
2026-05-04 17:45 39.46469 -76.38381 33992 ft 432 kts 233°
2026-05-04 17:46 39.42330 -76.43988 34006 ft 434 kts 230°
2026-05-04 17:46 39.38017 -76.49548 34011 ft 435 kts 229°
2026-05-04 17:47 39.34587 -76.53983 34006 ft 435 kts 230°
2026-05-04 17:47 39.30350 -76.59495 34007 ft 435 kts 230°
2026-05-04 17:48 39.26086 -76.65052 33991 ft 436 kts 230°
2026-05-04 17:48 39.21885 -76.70519 33990 ft 436 kts 230°
2026-05-04 17:49 39.17618 -76.76062 33981 ft 436 kts 230°
2026-05-04 17:49 39.13338 -76.81611 33990 ft 436 kts 230°
2026-05-04 17:50 39.09058 -76.87150 33993 ft 436 kts 230°
2026-05-04 17:50 39.05327 -76.91971 33996 ft 436 kts 230°
2026-05-04 17:51 39.01040 -76.97500 33991 ft 436 kts 230°
2026-05-04 17:51 38.96777 -77.02987 33990 ft 437 kts 230°
2026-05-04 17:52 38.92478 -77.08510 33992 ft 437 kts 230°
2026-05-04 17:52 38.88179 -77.14025 33989 ft 437 kts 230°
2026-05-04 17:53 38.83875 -77.19537 33988 ft 437 kts 230°
2026-05-04 17:53 38.79590 -77.25018 33981 ft 438 kts 230°
2026-05-04 17:54 38.75273 -77.30527 33982 ft 438 kts 230°
2026-05-04 17:54 38.71672 -77.35074 33979 ft 439 kts 229°
2026-05-04 17:55 38.67138 -77.40341 33988 ft 440 kts 227°
2026-05-04 17:55 38.62566 -77.45531 33989 ft 440 kts 227°
2026-05-04 17:56 38.58028 -77.50722 33992 ft 439 kts 227°
2026-05-04 17:56 38.53486 -77.55944 33992 ft 439 kts 227°
2026-05-04 17:57 38.48941 -77.61173 33989 ft 440 kts 227°
2026-05-04 17:57 38.44395 -77.66392 33990 ft 440 kts 227°
2026-05-04 17:58 38.39845 -77.71607 33993 ft 440 kts 227°
2026-05-04 17:58 38.35287 -77.76819 33984 ft 440 kts 228°
2026-05-04 17:59 38.30724 -77.82030 33984 ft 440 kts 228°
2026-05-04 18:00 38.23892 -77.89812 33991 ft 440 kts 228°
2026-05-04 18:00 38.19332 -77.94997 33992 ft 440 kts 228°
2026-05-04 18:01 38.14768 -78.00174 33990 ft 440 kts 228°
2026-05-04 18:01 38.10265 -78.05275 33995 ft 439 kts 228°
2026-05-04 18:02 38.03419 -78.13018 34002 ft 439 kts 227°
2026-05-04 18:02 37.99062 -78.18393 34004 ft 434 kts 234°
2026-05-04 18:03 37.95103 -78.24096 33997 ft 434 kts 235°
2026-05-04 18:03 37.91138 -78.29852 34002 ft 434 kts 234°
2026-05-04 18:04 37.87144 -78.35575 33992 ft 434 kts 234°
2026-05-04 18:05 37.81115 -78.44130 33994 ft 434 kts 234°
2026-05-04 18:05 37.77082 -78.49826 33992 ft 434 kts 234°
2026-05-04 18:06 37.71064 -78.58317 33999 ft 433 kts 234°
2026-05-04 18:06 37.67039 -78.63982 34008 ft 433 kts 234°
2026-05-04 18:07 37.63023 -78.69623 34012 ft 432 kts 234°
2026-05-04 18:07 37.59009 -78.75254 34006 ft 431 kts 234°
2026-05-04 18:08 37.55027 -78.80832 34012 ft 430 kts 234°
2026-05-04 18:08 37.51029 -78.86422 34010 ft 428 kts 234°
2026-05-04 18:09 37.43060 -78.97537 34027 ft 427 kts 234°
2026-05-04 18:10 37.39084 -79.03067 34026 ft 426 kts 234°
2026-05-04 18:10 37.35109 -79.08582 34030 ft 425 kts 234°
2026-05-04 18:11 37.31122 -79.14115 33376 ft 430 kts 233°
2026-05-04 18:11 37.29121 -79.16885 32721 ft 427 kts 233°
2026-05-04 18:11 37.27123 -79.19648 32019 ft 428 kts 233°
2026-05-04 18:12 37.25117 -79.22421 31280 ft 429 kts 233°
2026-05-04 18:12 37.23141 -79.25216 30597 ft 427 kts 235°
2026-05-04 18:12 37.21243 -79.28065 29829 ft 426 kts 236°
2026-05-04 18:12 37.19378 -79.30943 29017 ft 425 kts 237°
2026-05-04 18:13 37.17516 -79.33830 28154 ft 426 kts 236°
2026-05-04 18:13 37.15649 -79.36713 27257 ft 428 kts 236°
2026-05-04 18:13 37.11890 -79.42456 25890 ft 422 kts 235°
2026-05-04 18:14 37.10029 -79.45279 25254 ft 418 kts 235°
2026-05-04 18:14 37.08184 -79.48073 24619 ft 415 kts 234°
2026-05-04 18:14 37.06355 -79.50840 23992 ft 412 kts 234°
2026-05-04 18:15 37.02718 -79.56335 22738 ft 407 kts 234°
2026-05-04 18:15 36.99131 -79.61745 21484 ft 401 kts 234°
2026-05-04 18:15 36.97356 -79.64420 20876 ft 398 kts 234°
2026-05-04 18:16 36.95594 -79.67073 20266 ft 395 kts 234°
2026-05-04 18:16 36.93847 -79.69700 19661 ft 391 kts 234°
2026-05-04 18:16 36.92117 -79.72301 19051 ft 387 kts 234°
2026-05-04 18:17 36.88700 -79.77431 17871 ft 381 kts 234°
2026-05-04 18:17 36.87020 -79.79949 17268 ft 371 kts 234°
2026-05-04 18:17 36.83810 -79.84754 16108 ft 352 kts 234°
2026-05-04 18:18 36.82258 -79.87077 15547 ft 346 kts 234°
2026-05-04 18:18 36.80709 -79.89402 15034 ft 356 kts 234°
2026-05-04 18:18 36.79071 -79.91865 14471 ft 375 kts 234°
2026-05-04 18:18 36.77402 -79.94357 13845 ft 374 kts 234°
2026-05-04 18:19 36.74078 -79.99267 12660 ft 368 kts 231°
2026-05-04 18:19 36.72029 -80.01172 12061 ft 377 kts 210°
2026-05-04 18:19 36.69538 -80.02149 11905 ft 374 kts 195°
2026-05-04 18:20 36.66950 -80.02266 11774 ft 385 kts 182°
2026-05-04 18:20 36.64197 -80.02076 11618 ft 394 kts 181°
2026-05-04 18:20 36.61457 -80.01840 11480 ft 394 kts 180°
2026-05-04 18:20 36.58726 -80.01597 11313 ft 392 kts 180°
2026-05-04 18:21 36.56053 -80.01369 11171 ft 389 kts 180°
2026-05-04 18:21 36.53329 -80.01149 11021 ft 387 kts 180°
2026-05-04 18:21 36.50687 -80.00944 10869 ft 374 kts 180°
2026-05-04 18:21 36.48236 -80.00758 10733 ft 360 kts 180°
2026-05-04 18:22 36.45784 -80.00577 10596 ft 348 kts 180°
2026-05-04 18:22 36.43409 -80.00404 10471 ft 336 kts 180°
2026-05-04 18:22 36.41116 -80.00239 10353 ft 324 kts 180°
2026-05-04 18:22 36.38903 -80.00080 10218 ft 311 kts 180°
2026-05-04 18:23 36.36797 -79.99928 10103 ft 296 kts 180°
2026-05-04 18:23 36.34814 -79.99785 9996 ft 283 kts 180°
2026-05-04 18:23 36.32864 -79.99644 9915 ft 278 kts 180°
2026-05-04 18:23 36.30945 -79.99511 9818 ft 276 kts 180°
2026-05-04 18:24 36.29027 -79.99378 9713 ft 276 kts 180°
2026-05-04 18:24 36.27106 -79.99244 9616 ft 277 kts 180°
2026-05-04 18:24 36.25169 -79.99106 9535 ft 280 kts 180°
2026-05-04 18:24 36.23228 -79.98969 9423 ft 279 kts 179°
2026-05-04 18:25 36.21288 -79.98831 9324 ft 279 kts 179°
2026-05-04 18:25 36.19356 -79.98693 9211 ft 277 kts 179°
2026-05-04 18:25 36.17442 -79.98557 9114 ft 275 kts 179°
2026-05-04 18:25 36.15535 -79.98420 9012 ft 274 kts 179°
2026-05-04 18:26 36.13647 -79.98284 8907 ft 274 kts 179°
2026-05-04 18:26 36.11746 -79.98148 8807 ft 273 kts 179°
2026-05-04 18:26 36.09856 -79.98013 8721 ft 272 kts 179°
2026-05-04 18:26 36.07962 -79.97880 8606 ft 273 kts 179°
2026-05-04 18:27 36.06068 -79.97748 8504 ft 272 kts 180°
2026-05-04 18:27 36.04236 -79.98138 8384 ft 268 kts 207°
2026-05-04 18:27 36.02664 -79.99319 8328 ft 265 kts 217°
2026-05-04 18:27 36.01202 -80.00700 8203 ft 264 kts 219°
2026-05-04 18:28 35.99765 -80.02113 8118 ft 264 kts 219°
2026-05-04 18:28 35.98327 -80.03532 8013 ft 264 kts 219°
2026-05-04 18:28 35.96893 -80.04936 7918 ft 263 kts 219°
2026-05-04 18:28 35.95454 -80.06338 7824 ft 263 kts 219°
2026-05-04 18:29 35.94020 -80.07728 7724 ft 262 kts 219°
2026-05-04 18:29 35.92587 -80.09114 7642 ft 261 kts 219°
2026-05-04 18:29 35.91155 -80.10492 7547 ft 261 kts 219°
2026-05-04 18:29 35.89721 -80.11869 7447 ft 261 kts 219°
2026-05-04 18:30 35.86854 -80.14618 7254 ft 261 kts 218°
2026-05-04 18:30 35.85424 -80.15986 7156 ft 260 kts 218°
2026-05-04 18:30 35.83995 -80.17352 7064 ft 259 kts 218°
2026-05-04 18:31 35.82565 -80.18720 6961 ft 260 kts 219°
2026-05-04 18:31 35.81158 -80.20065 6871 ft 259 kts 219°
2026-05-04 18:31 35.79734 -80.21424 6776 ft 259 kts 218°
2026-05-04 18:31 35.78316 -80.22780 6675 ft 258 kts 218°
2026-05-04 18:32 35.76896 -80.24139 6580 ft 259 kts 218°
2026-05-04 18:32 35.75474 -80.25492 6489 ft 258 kts 218°
2026-05-04 18:32 35.74052 -80.26846 6406 ft 258 kts 218°
2026-05-04 18:32 35.72627 -80.28203 6301 ft 260 kts 218°
2026-05-04 18:33 35.71194 -80.29568 6189 ft 261 kts 218°
2026-05-04 18:33 35.69769 -80.30927 6102 ft 259 kts 218°
2026-05-04 18:33 35.68357 -80.32267 6000 ft 254 kts 218°
2026-05-04 18:33 35.66966 -80.33587 5923 ft 252 kts 218°
2026-05-04 18:34 35.65595 -80.34890 5823 ft 253 kts 218°
2026-05-04 18:34 35.64206 -80.36208 5740 ft 253 kts 218°
2026-05-04 18:34 35.62822 -80.37521 5655 ft 253 kts 218°
2026-05-04 18:34 35.61426 -80.38847 5559 ft 254 kts 218°
2026-05-04 18:35 35.60019 -80.40177 5460 ft 255 kts 218°
2026-05-04 18:35 35.58612 -80.41511 5374 ft 256 kts 218°
2026-05-04 18:35 35.57204 -80.42848 5283 ft 256 kts 218°
2026-05-04 18:35 35.55792 -80.44186 5190 ft 256 kts 218°
2026-05-04 18:36 35.54379 -80.45524 5082 ft 256 kts 218°
2026-05-04 18:36 35.52970 -80.46856 4994 ft 256 kts 218°
2026-05-04 18:36 35.51558 -80.48191 4929 ft 256 kts 218°
2026-05-04 18:36 35.50150 -80.49522 4795 ft 255 kts 218°
2026-05-04 18:37 35.48755 -80.50843 4730 ft 253 kts 218°
2026-05-04 18:37 35.47363 -80.52156 4617 ft 252 kts 218°
2026-05-04 18:37 35.45972 -80.53468 4556 ft 252 kts 218°
2026-05-04 18:37 35.44549 -80.54736 4295 ft 256 kts 213°
2026-05-04 18:38 35.43059 -80.55880 4163 ft 249 kts 212°
2026-05-04 18:38 35.41593 -80.56991 4048 ft 245 kts 212°
2026-05-04 18:38 35.40143 -80.58088 3974 ft 245 kts 212°
2026-05-04 18:38 35.38696 -80.59190 3864 ft 246 kts 212°
2026-05-04 18:39 35.37267 -80.60284 3787 ft 239 kts 212°
2026-05-04 18:39 35.35893 -80.61337 3718 ft 226 kts 213°
2026-05-04 18:39 35.34597 -80.62340 3667 ft 215 kts 213°
2026-05-04 18:39 35.33363 -80.63287 3561 ft 202 kts 212°
2026-05-04 18:40 35.32210 -80.64169 3475 ft 189 kts 213°
2026-05-04 18:40 35.31125 -80.65010 3413 ft 180 kts 211°
2026-05-04 18:40 35.30367 -80.65367 3326 ft 174 kts 186°
2026-05-04 18:40 35.29194 -80.65391 3352 ft 169 kts 184°
2026-05-04 18:41 35.28079 -80.65707 3304 ft 167 kts 220°
2026-05-04 18:41 35.27328 -80.66815 3362 ft 173 kts 229°
2026-05-04 18:41 35.26468 -80.67851 3343 ft 175 kts 221°
2026-05-04 18:41 35.25514 -80.68777 3266 ft 175 kts 216°
2026-05-04 18:42 35.24506 -80.69616 3222 ft 176 kts 221°
2026-05-04 18:42 35.23986 -80.70911 3149 ft 175 kts 268°
2026-05-04 18:42 35.24201 -80.72323 3067 ft 167 kts 291°
2026-05-04 18:42 35.24940 -80.73364 3077 ft 161 kts 325°
2026-05-04 18:43 35.26004 -80.73720 3030 ft 162 kts 360°
2026-05-04 18:43 35.27127 -80.73544 2803 ft 164 kts
2026-05-04 18:43 35.28254 -80.73295 2639 ft 163 kts 11°
2026-05-04 18:43 35.29346 -80.73047 2392 ft 155 kts 12°
2026-05-04 18:44 35.30391 -80.72807 2220 ft 154 kts 12°
2026-05-04 18:44 35.31083 -80.72650 2200 ft 152 kts 11°
2026-05-04 18:44 35.32457 -80.72340 2007 ft 154 kts 10°
2026-05-04 18:44 35.33493 -80.72100 1673 ft 150 kts 11°
2026-05-04 18:45 35.34516 -80.71852 1414 ft 150 kts 11°
2026-05-04 18:45 35.35549 -80.71631 1188 ft 150 kts
2026-05-04 18:45 35.36600 -80.71404 898 ft 156 kts 10°
2026-05-04 18:45 35.37660 -80.71166 714 ft 154 kts 11°
2026-05-04 18:46 35.38644 -80.70945 680 ft 112 kts 10°
2026-05-04 18:46 35.38990 -80.70869 687 ft 31 kts 10°
2026-05-04 18:46 35.39153 -80.70829 690 ft 17 kts 10°
2026-05-04 18:46 35.39231 -80.70819 697 ft 8 kts 357°
2026-05-04 18:47 35.39276 -80.70872 700 ft 9 kts 279°
2026-05-04 18:47 35.39247 -80.70938 692 ft 10 kts 208°
2026-05-04 18:47 35.39126 -80.70970 692 ft 20 kts 191°
2026-05-04 18:47 35.39000 -80.71000 691 ft 17 kts 192°
2026-05-04 18:48 35.38905 -80.71023 688 ft 10 kts 191°
2026-05-04 18:48 35.38850 -80.71036 682 ft 8 kts 191°
2026-05-04 18:48 35.38803 -80.71046 682 ft 3 kts 191°
2026-05-04 18:48 35.38744 -80.71059 680 ft 21 kts 189°
2026-05-04 18:49 35.38620 -80.71086 679 ft 15 kts 190°
2026-05-04 18:49 35.38533 -80.71105 676 ft 12 kts 190°
2026-05-04 18:49 35.38441 -80.71125 672 ft 17 kts 190°
2026-05-04 18:49 35.38317 -80.71153 669 ft 17 kts 189°
2026-05-04 18:50 35.38240 -80.71198 667 ft 6 kts 263°
2026-05-04 18:50 35.38249 -80.71215 667 ft 4 kts 326°
2026-05-04 18:50 35.38283 -80.71264 666 ft 5 kts 342°
2026-05-04 18:50 35.38364 -80.71250 668 ft 28 kts 12°
2026-05-04 18:51 35.38532 -80.71207 676 ft 18 kts 34°
2026-05-04 18:51 35.38509 -80.71113 675 ft 17 kts 171°
2026-05-04 18:51 35.38367 -80.71142 671 ft 23 kts 191°
2026-05-04 18:51 35.38242 -80.71182 665 ft 14 kts 232°
2026-05-04 18:52 35.38262 -80.71217 667 ft 8 kts 338°
2026-05-04 18:52 35.38273 -80.71237 668 ft 0 kts 288°
2026-05-04 18:52 35.38269 -80.71221 667 ft 0 kts 288°
2026-05-04 18:52 35.38320 -80.71251 669 ft 14 kts 351°
2026-05-04 18:53 35.38380 -80.71247 668 ft 0 kts 12°
2026-05-04 18:53 35.38402 -80.71241 671 ft 12 kts 10°
2026-05-04 18:53 35.38545 -80.71209 676 ft 24 kts 10°
2026-05-04 18:54 35.38698 -80.71177 678 ft 18 kts 10°
2026-05-04 18:54 35.38846 -80.71143 680 ft 22 kts 10°
2026-05-04 18:54 35.38912 -80.71088 683 ft 6 kts 130°
2026-05-04 18:54 35.38888 -80.71079 683 ft 6 kts 177°
2026-05-04 18:55 35.38845 -80.71090 686 ft 2 kts 231°
2026-05-04 18:55 35.38841 -80.71112 685 ft 0 kts 255°
2026-05-04 18:58 35.42233 -80.56504 685 ft 233 kts 212°
2026-05-04 18:58 35.40848 -80.57556 4005 ft 245 kts 212°
2026-05-04 18:58 35.33526 -80.72092 1654 ft 150 kts 11°
2026-05-04 18:58 35.34889 -80.71769 1308 ft 151 kts 10°
2026-05-04 18:59 35.35920 -80.71558 1085 ft 152 kts